TimePST,TemperatureF,Dew PointF,Humidity,Sea Level PressureIn,VisibilityMPH,Wind Direction,Wind SpeedMPH,Gust SpeedMPH,PrecipitationIn,Events,Conditions,WindDirDegrees,DateUTC
12:56 AM,44.1,39.0,82,30.16,10.0,WSW,10.4,-,N/A,,Clear,250,2012-12-23 08:56:00
1:56 AM,45.0,39.9,82,30.16,10.0,WSW,13.8,-,N/A,,Clear,240,2012-12-23 09:56:00
2:56 AM,45.0,39.9,82,30.15,10.0,SW,13.8,-,N/A,,Clear,230,2012-12-23 10:56:00
3:56 AM,45.0,39.0,80,30.14,10.0,SW,12.7,-,N/A,,Clear,230,2012-12-23 11:56:00
4:56 AM,44.1,37.9,79,30.14,10.0,SW,12.7,-,N/A,,Clear,230,2012-12-23 12:56:00
5:56 AM,44.1,37.0,76,30.14,10.0,SW,11.5,-,N/A,,Clear,220,2012-12-23 13:56:00
6:56 AM,43.0,36.0,76,30.14,10.0,WSW,6.9,-,N/A,,Clear,250,2012-12-23 14:56:00
7:56 AM,43.0,37.0,80,30.14,10.0,WNW,5.8,-,N/A,,Clear,300,2012-12-23 15:56:00
8:56 AM,48.0,39.0,71,30.15,10.0,SW,16.1,24.2,N/A,,Clear,220,2012-12-23 16:56:00
9:56 AM,50.0,39.0,66,30.16,10.0,SW,19.6,31.1,N/A,,Clear,230,2012-12-23 17:56:00
10:56 AM,52.0,37.9,59,30.17,10.0,WSW,23.0,32.2,N/A,,Clear,240,2012-12-23 18:56:00
11:56 AM,52.0,37.9,59,30.14,10.0,WSW,23.0,28.8,N/A,,Clear,240,2012-12-23 19:56:00
12:56 PM,53.1,39.0,59,30.11,10.0,WSW,21.9,29.9,N/A,,Mostly Cloudy,240,2012-12-23 20:56:00
1:56 PM,53.1,39.0,59,30.09,10.0,SW,17.3,25.3,N/A,,Overcast,230,2012-12-23 21:56:00
2:56 PM,53.1,39.0,59,30.09,10.0,WSW,17.3,24.2,N/A,,Clear,240,2012-12-23 22:56:00
3:56 PM,51.1,37.9,61,30.09,10.0,SW,13.8,-,N/A,,Scattered Clouds,230,2012-12-23 23:56:00
4:56 PM,48.9,37.9,66,30.08,10.0,SW,12.7,-,N/A,,Partly Cloudy,230,2012-12-24 00:56:00
5:56 PM,48.9,39.0,69,30.09,10.0,WSW,15.0,-,N/A,,Clear,240,2012-12-24 01:56:00
6:56 PM,48.0,39.0,71,30.10,10.0,SW,13.8,-,N/A,,Clear,230,2012-12-24 02:56:00
7:56 PM,48.0,37.9,68,30.11,10.0,SW,13.8,26.5,N/A,,Clear,230,2012-12-24 03:56:00
8:56 PM,46.9,39.0,74,30.09,10.0,SW,16.1,24.2,N/A,,Clear,230,2012-12-24 04:56:00
9:56 PM,48.0,39.9,74,30.08,10.0,SW,16.1,25.3,N/A,,Clear,230,2012-12-24 05:56:00
10:56 PM,48.0,39.9,74,30.08,10.0,SW,9.2,-,N/A,,Clear,230,2012-12-24 06:56:00
11:56 PM,46.9,41.0,80,30.05,10.0,West,13.8,-,N/A,,Scattered Clouds,260,2012-12-24 07:56:00